Weather History for Orange, MA

Change the Weather History Date:

Thursday, January 3, 2013

  Actual Average Record
Temperature  
Mean Temperature 8 °F -  
Max Temperature 21 °F 32 °F 57 °F (2000)
Min Temperature -6 °F 15 °F -14 °F (2014)
Degree Days  
Heating Degree Days 58    
Moisture  
Dew Point -3 °F    
Average Humidity 66    
Maximum Humidity 87    
Minimum Humidity 30    
Precipitation  
Precipitation 0.00 in - - ()
Sea Level Pressure  
Sea Level Pressure 30.11 in    
Wind  
Wind Speed 3 mph (NNW)    
Max Wind Speed 7 mph    
Max Gust Speed -    
Visibility 10 miles    
Events      
Averages and records for this station are not official NWS values.
T = Trace of Precipitation, MM = Missing Value Source: NWS Daily Summary

Daily Weather History Graph

Daily Weather History Graph

Search for Another Location

Airport:

Trip Planner

Search our weather history database for the weather conditions in past years. The results will help you decide how hot, cold, wet, or windy it might be!

Date:

Astronomy

Jan. 03, 2013 Rise Set
Actual Time 7:19 AM EST 4:28 PM EST
Civil Twilight 6:47 AM EST 5:00 PM EST
Nautical Twilight 6:11 AM EST 5:35 PM EST
Astronomical Twilight 5:37 AM EST 6:10 PM EST
Moon 11:10 PM EST (1/3) 10:20 AM EST (1/3)
Length of Visible Light 10h 13m
Length of Day
9h 09m
Waning Gibbous, 65% of the Moon is Illuminated
Jan 3
Waning Gibbous
Jan 4
Last Quarter
Jan 11
New
Jan 18
First Quarter
Jan 26
Full

Hourly Weather History & Observations

Time (EST) Temp. Windchill Dew Point Humidity Pressure Visibility Wind Dir Wind Speed Gust Speed Precip Events Conditions
12:52 AM 3.9 °F -8.2 °F -6.0 °F 64% 30.17 in 10.0 mi Variable 6.9 mph - N/A   Clear
2:52 AM -0.9 °F -14.1 °F -9.0 °F 69% 30.18 in 10.0 mi NNE 6.9 mph - N/A   Clear
3:52 AM -0.0 °F -7.9 °F -9.0 °F 66% 30.17 in 10.0 mi North 3.5 mph - N/A   Clear
4:52 AM -4.0 °F - -9.0 °F 79% 30.17 in 10.0 mi Calm Calm - N/A   Clear
5:52 AM -4.0 °F - -9.0 °F 79% 30.17 in 10.0 mi Calm Calm - N/A   Clear
6:52 AM -6.0 °F - -9.9 °F 83% 30.17 in 10.0 mi Calm Calm - N/A   Clear
7:52 AM -6.0 °F - -9.9 °F 83% 30.18 in 10.0 mi Calm Calm - N/A   Clear
8:52 AM -2.9 °F - -7.1 °F 82% 30.17 in 10.0 mi Calm Calm - N/A   Clear
9:52 AM 3.0 °F - -9.0 °F 57% 30.16 in 10.0 mi Calm Calm - N/A   Clear
10:52 AM 9.0 °F - -7.1 °F 48% 30.16 in 10.0 mi Calm Calm - N/A   Clear
11:52 AM 14.0 °F - -6.0 °F 41% 30.12 in 10.0 mi Calm Calm - N/A   Clear
12:52 PM 19.0 °F 11.1 °F -7.1 °F 31% 30.08 in 10.0 mi NW 5.8 mph - N/A   Partly Cloudy
1:52 PM 19.9 °F - -7.1 °F 30% 30.06 in 10.0 mi Calm Calm - N/A   Clear
2:52 PM 21.0 °F 16.2 °F -2.0 °F 36% 30.05 in 10.0 mi WNW 3.5 mph - N/A   Clear
4:52 PM 14.0 °F - 1.9 °F 59% 30.05 in 10.0 mi Calm Calm - N/A   Clear
5:52 PM 10.9 °F - 1.9 °F 67% 30.06 in 10.0 mi Calm Calm - N/A   Scattered Clouds
6:52 PM 12.0 °F - 3.9 °F 70% 30.06 in 10.0 mi Calm Calm - N/A   Overcast
7:52 PM 10.9 °F - 5.0 °F 77% 30.06 in 10.0 mi Calm Calm - N/A   Mostly Cloudy
8:52 PM 8.1 °F - 5.0 °F 87% 30.05 in 10.0 mi Calm Calm - N/A   Overcast
9:52 PM 10.0 °F - 5.0 °F 80% 30.05 in 10.0 mi Calm Calm - N/A   Overcast
10:52 PM 10.0 °F - 5.0 °F 80% 30.03 in 10.0 mi Calm Calm - N/A   Mostly Cloudy
11:52 PM 10.0 °F - 6.1 °F 84% 30.01 in 10.0 mi Calm Calm - N/A   Overcast